Location: Arcusa
(42.3167°N, 0.0833°W)
Time: 16:00:24
(UTC+00:00)

Cosmos 2154 Rocket - Pass Details

Date: 25 January 2020
Orbit: 965 x 997 km, 82.9° (Epoch: 18 February)

Event Time Altitude Azimuth Distance (km) Brightness Sun altitude
Exits shadow 05:07:53 54° 263° (W) 1,159 4.0 -24.5°
Drops below altitude 10° 05:13:43 10° 193° (SSW) 2,701 6.2 -23.4°
Sets 05:16:16 0° 189° (S) 3,647 7.0 -22.9°
